Regional Weather Roundup
Issued by NWS

Home | Current Version | Previous Version | Text Only | Print | Product List | Glossary On
Versions: 1 2 3 4 5 6 7 8 9 10 11 12 13 14 15 16 17 18 19 20 21 22 23 24 25 26 27 28 29 30 31 32 33 34 35 36 37 38 39 40 41 42 43 44 45 46 47 48 49 50
000
ASUS43 KMKX 110020
RWRWI

WISCONSIN REGIONAL WEATHER ROUNDUP
NATIONAL WEATHER SERVICE MILWAUKEE/SULLIVAN WI
600 PM CST WED FEB 10 2016

NOTE: "FAIR" INDICATES FEW OR NO CLOUDS BELOW 12,000 FEET WITH NO
SIGNIFICANT WEATHER AND/OR OBSTRUCTIONS TO VISIBILITY.

WIZ001-002-006>008-014>016-023>028-110100-
NORTHWEST WISCONSIN

CITY           SKY/WX    TMP DP  RH WIND       PRES   REMARKS
SUPERIOR ARPT  PTCLDY     7  -6  54 N3        30.20R
6HR MIN TEMP:   5; 6HR MAX TEMP:  13;

ASHLAND        CLEAR      1  -5  75 CALM      30.17R
6HR MIN TEMP:   0; 6HR MAX TEMP:  12;

HAYWARD        CLEAR      7  -4  60 N6        30.13R WCI  -3
6HR MIN TEMP:   6; 6HR MAX TEMP:  11; 6HR PCP: TRACE;

SIREN          CLEAR      6  -6  58 CALM      30.17S
6HR MIN TEMP:   5; 6HR MAX TEMP:  10;

CUMBERLAND     CLEAR      5  -6  61 N6        30.13R WCI  -6
RICE LAKE      CLEAR      8  -3  60 NW3       30.15R
6HR MIN TEMP:   5; 6HR MAX TEMP:  11;

CHETEK         CLEAR      6  -3  66 CALM      30.14R
6HR MIN TEMP:   6; 6HR MAX TEMP:  10;

LADYSMITH      CLEAR      8  -3  62 N7        30.13R WCI  -4
6HR MIN TEMP:   9; 6HR MAX TEMP:  13;

EAU CLAIRE     CLEAR      7  -4  60 NW5       30.14R WCI  -2
6HR MIN TEMP:   5; 6HR MAX TEMP:  10;

MENOMONIE      CLOUDY     7  -5  58 NW6       30.16R WCI  -3
6HR MIN TEMP:   8; 6HR MAX TEMP:  17;

NEW RICHMOND   PTCLDY     6  -4  61 N6        30.16R WCI  -4
6HR MIN TEMP:   4; 6HR MAX TEMP:  10;

OSCEOLA        CLOUDY     8  -4  59 N3        30.20R
6HR MIN TEMP:   5; 6HR MAX TEMP:  11;

$$

WIZ003>005-009-010-017-018-110100-
NORTH CENTRAL WISCONSIN

CITY           SKY/WX    TMP DP  RH WIND       PRES   REMARKS
MANITOWISH WTR CLOUDY     6  -2  71 N9        30.05R WCI  -8
6HR MIN TEMP:   6; 6HR MAX TEMP:   8;

ARBOR VITAE    CLOUDY     9  -1  65 NW8       30.04R WCI  -3
6HR MIN TEMP:   9; 6HR MAX TEMP:  11;

WOODRUFF       CLOUDY     9  -1  65 NW8       30.04R WCI  -3
6HR MIN TEMP:   9; 6HR MAX TEMP:  11;

RHINELANDER    CLOUDY     6  -5  60 NW7       30.04R WCI  -6
6HR MIN TEMP:   6; 6HR MAX TEMP:  10; 6HR PCP: TRACE;

EAGLE RIVER    CLOUDY     6  -5  60 N9        30.03R WCI  -8
LAND O LAKES   CLOUDY     6  -3  67 N7G16     30.04R WCI  -6
6HR MIN TEMP:   6; 6HR MAX TEMP:   8;

PHILLIPS       MOCLDY     6  -3  69 NW3       30.07R
6HR MIN TEMP:   6; 6HR MAX TEMP:   8;

TOMAHAWK       CLOUDY     6  -4  63 NW5       30.06R WCI  -3
6HR MIN TEMP:   6; 6HR MAX TEMP:  11;

MEDFORD        CLEAR      7  -4  61 N5        30.05R WCI  -2
6HR MIN TEMP:   7; 6HR MAX TEMP:  11;

MERRILL        MOCLDY     8  -3  60 N8        30.07R WCI  -5
6HR MIN TEMP:   8; 6HR MAX TEMP:  13;

$$

WIZ029-030-035-036-043>047-110100-
CENTRAL WISCONSIN

CITY           SKY/WX    TMP DP  RH WIND       PRES   REMARKS
WAUSAU         CLEAR     11  -3  53 N6        30.05R WCI   1
6HR MIN TEMP:  10; 6HR MAX TEMP:  14;

MOSINEE        CLEAR      9  -4  56 N5        30.07R WCI   0
MARSHFIELD     PTCLDY     8  -5  55 NW6       30.07R WCI  -2
6HR MIN TEMP:   8; 6HR MAX TEMP:  11;

STEVENS POINT  CLEAR      8  -5  54 CALM      30.08R
6HR MIN TEMP:   7; 6HR MAX TEMP:  11;

WAUPACA        CLEAR     12  -5  46 NW3       30.09R
6HR MIN TEMP:  13; 6HR MAX TEMP:  18;

WAUTOMA        CLEAR      8  -4  58 NW6       30.10R WCI  -2
6HR MIN TEMP:   8; 6HR MAX TEMP:  14;

WISC RAPIDS    CLOUDY     8  -5  55 NW5       30.10R WCI   0
6HR MIN TEMP:   8; 6HR MAX TEMP:  12; 6HR PCP: TRACE;

CAMP DOUGLAS   PTCLDY     9  -2  61 N5        30.11R WCI   0
$$

WIZ011>013-019>022-031-037>040-048>050-110100-
NORTHEAST WISCONSIN

CITY           SKY/WX    TMP DP  RH WIND       PRES   REMARKS
ANTIGO         PTCLDY     6  -5  60 N9        30.03R WCI  -8
6HR MIN TEMP:   6; 6HR MAX TEMP:  10;

SHAWANO        PTCLDY    13  -4  45 N6        30.09R WCI   4
6HR MIN TEMP:  14; 6HR MAX TEMP:  18;

OCONTO         CLEAR     10  -5  50 N3        30.09R
6HR MIN TEMP:  10; 6HR MAX TEMP:  15;

STURGEON BAY   CLEAR      9  -6  52 N12       30.09R WCI  -6
6HR MIN TEMP:   9; 6HR MAX TEMP:  14;

GREEN BAY      PTCLDY     7  -6  55 NW5       30.08R WCI  -2
6HR MIN TEMP:   7; 6HR MAX TEMP:  14;

MANITOWOC      PTCLDY     9  -4  55 W5        30.08R WCI   1
6HR MIN TEMP:   9; 6HR MAX TEMP:  15;

APPLETON       PTCLDY    10  -8  44 VRB6      30.05R WCI   1
CLINTONVILLE   CLEAR     14  -6  41 N6        30.08R WCI   5
OSHKOSH        PTCLDY    10  -5  50 NW3       30.08R
6HR MIN TEMP:  10; 6HR MAX TEMP:  14;

$$

WIZ032>034-041-042-053>061-110100-
SOUTHWEST WISCONSIN

CITY           SKY/WX    TMP DP  RH WIND       PRES   REMARKS
LA CROSSE      PTCLDY     8  -3  61 NW7       30.15R WCI  -3
6HR MIN TEMP:   7; 6HR MAX TEMP:  12;

SPARTA         CLEAR     10  -1  59 CALM      30.14R
6HR MIN TEMP:  10; 6HR MAX TEMP:  14;

VIROQUA        MOCLDY     5  -5  64 NW3       30.08R
6HR MIN TEMP:   5; 6HR MAX TEMP:  11;

BOSCOBEL       CLEAR     12  -4  48 N5        30.14R WCI   4
6HR MIN TEMP:  12; 6HR MAX TEMP:  17;

PRAIRIE DU CHI CLEAR     11  -3  52 NW3       30.14R
6HR MIN TEMP:  11; 6HR MAX TEMP:  16;

PLATTEVILLE    PTCLDY    10   1  65 N3        30.09R
6HR MIN TEMP:  10; 6HR MAX TEMP:  15;

$$

WIZ056-057-062-063-064-067-068-110100-
SOUTH CENTRAL WISCONSIN

CITY           SKY/WX    TMP DP  RH WIND       PRES   REMARKS
REEDSBURG      CLEAR     11  -3  53 N7        30.10R WCI   0
6HR MIN TEMP:  10; 6HR MAX TEMP:  13;

BARABOO/DELLS  PTCLDY    11  -4  51 NW5       30.09R WCI   3
6HR MIN TEMP:  11; 6HR MAX TEMP:  15;

LONE ROCK      CLEAR     13  -3  49 N3        30.13R
6HR MIN TEMP:   2; 6HR MAX TEMP:  15;

MINERAL POINT  CLEAR     12  -4  48 N3        30.08R
MADISON        PTCLDY    11  -3  53 NW5       30.09R WCI   3
6HR MIN TEMP:  10; 6HR MAX TEMP:  14;

MIDDLETON      CLEAR      9   0  67 W3        30.10R
6HR MIN TEMP:  10; 6HR MAX TEMP:  16;

WATERTOWN      CLEAR     10   0  63 CALM      30.09R
6HR MIN TEMP:  10; 6HR MAX TEMP:  15;

MONROE         CLEAR     12   1  62 N5        30.07R WCI   4
JANESVILLE     CLEAR     12   1  62 NW6       30.10R WCI   3
$$

WIZ051-052-058>065-066-070>072-110100-
SOUTHEAST WISCONSIN

CITY           SKY/WX    TMP DP  RH WIND       PRES   REMARKS
MILWAUKEE      MOCLDY    12  -2  53 NW8       30.10R WCI   0
6HR MIN TEMP:  12; 6HR MAX TEMP:  16;

WAUKESHA       PTCLDY     9  -2  61 NW6       30.09R WCI  -1
MILWAUKEE/TIMM CLEAR     10  -6  48 MISG      30.10R
RACINE         PTCLDY    12  -3  51 NW8       30.11R WCI   0
6HR MIN TEMP:  12; 6HR MAX TEMP:  16;

BURLINGTON     PTCLDY     9  -1  62 N5        30.10R WCI   1
6HR MIN TEMP:  10; 6HR MAX TEMP:  15;

KENOSHA        PTCLDY    12   0  58 NW5       30.09R WCI   4
6HR MIN TEMP:  12; 6HR MAX TEMP:  16;

FOND DU LAC    PTCLDY     8  -3  61 NW3       30.08R
6HR MIN TEMP:   8; 6HR MAX TEMP:  14;

SHEBOYGAN      CLEAR      9  -5  53 W6        30.08R WCI  -1
6HR MIN TEMP:   9; 6HR MAX TEMP:  13;

WEST BEND      CLEAR     10  -4  52 CALM      30.08R
JUNEAU         CLEAR      8  -1  64 CALM      30.09S
6HR MIN TEMP:   8; 6HR MAX TEMP:  13;

$$

LSZ147-162-110100-
LAKE SUPERIOR

STATION/POSITION TIME  TEMP    WIND        PRES    WAVE
                       AIR SEA DIR/SP/G            HT/PER
                 (UTC) (F)     (DEG/KT/KT) (MB)    (FT/S)
DEVILS ISLAND    0000   12     330/ 13/ 20 1023.3R
SAXON HARBOR     2300   11                 1020.7R
$$

LMZ867-665-643>646-110100-
LAKE MICHIGAN

STATION/POSITION TIME  TEMP    WIND        PRES    WAVE
                       AIR SEA DIR/SP/G            HT/PER
                 (UTC) (F)     (DEG/KT/KT) (MB)    (FT/S)
CHAMBERS ISLAND  2300   11     310/ 16/ 21 1017.6R
ALGOMA LAKESHORE 2311          350/  8/ 11C1F1C2F2C3F3C4F4C5F5C6F6C7F7C8M1C9M2Ca!


USA.gov is the U.S. government's official web portal to all federal, state and local government web resources and services.